Main page
METAR-TAF:

METAR-TAF

Airports :

Gatesville Municipal Airport

Gatesville, Texas, United States

latitude: 31-25-16N, longitude: 097-47-49W, elevation: 905 ft

Current weather observation

The report was made 11 minutes ago, at 20:55 UTC
Wind 12 mph from the South/Southeast with gusts up to 18 mph
Temperature 73°F
Humidity 47%
Pressure 29.91 in. Hg
Visibility: 10 miles
Clear sky

METAR: KGOP 012055Z AUTO 15010G16KT 10SM CLR 23/11 A2991 RMK AO2

Time: 16:06 (21:06 UTC)


TAF: missing

Weather observations and forecasts of more than 4000 airports (METAR and TAF reports).

The available stations are represented by yellow and red dots on the map.

Hover mouse over dot to see the name of the station.

Then click to see weather observations and forecasts.

To change the map : click on the green buttons with a black cross to zoom in, on the green button with a dash to zoom out, or on the green arrows for adjacent maps.


METAR-TAF: